Weather History for KERI - August, 2012

Change the Weather History Date:

Wednesday, August 1, 2012

  Actual Average Record
Temperature  
Mean Temperature 72 °F 72 °F  
Max Temperature 80 °F 80 °F 95 °F (1917)
Min Temperature 64 °F 64 °F 50 °F (1960)
Degree Days  
Heating Degree Days 0 0  
Month to date heating degree days 0 0  
Since 1 June heating degree days 43 68  
Since 1 July heating degree days 0 7  
Cooling Degree Days 7 7  
Month to date cooling degree days 7 7  
Year to date cooling degree days 609 382  
Since 1 June cooling degree days 514 343  
Growing Degree Days 22 (Base 50)    
Moisture  
Dew Point 64 °F    
Average Humidity 74    
Maximum Humidity 93    
Minimum Humidity 54    
Precipitation  
Precipitation 0.00 in 0.12 in - ()
Month to date precipitation 0.00 0.12  
Year to date precipitation 18.30 22.48  
Snow  
Snow 0.00 in 0.00 in - ()
Month to date snowfall 0.0 0.0  
Since 1 June snowfall 0.0 0.0  
Since 1 July snowfall 0.0 0.0  
Snow Depth 0.00 in    
Sea Level Pressure  
Sea Level Pressure 29.89 in    
Wind  
Wind Speed 5 mph (WNW)    
Max Wind Speed 13 mph    
Max Gust Speed 16 mph    
Visibility 10 miles    
Events      
T = Trace of Precipitation, MM = Missing Value Source: NWS Daily Summary

Daily Weather History Graph

Daily Weather History Graph

Search for Another Location

Airport or City:

Trip Planner

Search our weather history database for the weather conditions in past years. The results will help you decide how hot, cold, wet, or windy it might be!

Date:

Astronomy

Aug. 01, 2012 Rise Set
Actual Time 6:14 AM EDT 8:38 PM EDT
Civil Twilight 5:42 AM EDT 9:10 PM EDT
Nautical Twilight 5:03 AM EDT 9:49 PM EDT
Astronomical Twilight 4:19 AM EDT 10:32 PM EDT
Moon 8:06 PM EDT (8/1) 5:42 AM EDT (8/1)
Length of Visible Light 15h 27m
Length of Day
14h 24m
Full, 100% of the Moon is Illuminated
Aug 1
Full
Aug 1
Full
Aug 9
Last Quarter
Aug 17
New
Aug 24
First Quarter

Hourly Weather History & Observations

Time (EDT) Temp. Dew Point Humidity Pressure Visibility Wind Dir Wind Speed Gust Speed Precip Events Conditions
12:51 AM 70.0 °F 64.0 °F 81% 29.87 in 10.0 mi South 4.6 mph - N/A   Mostly Cloudy
1:51 AM 69.1 °F 64.0 °F 84% 29.87 in 10.0 mi Calm Calm - N/A   Scattered Clouds
2:51 AM 73.0 °F 64.0 °F 73% 29.87 in 10.0 mi NNW 6.9 mph - N/A   Clear
3:51 AM 73.0 °F 64.9 °F 76% 29.87 in 10.0 mi North 5.8 mph - N/A   Clear
4:51 AM 66.0 °F 63.0 °F 90% 29.87 in 10.0 mi Calm Calm - N/A   Partly Cloudy
5:51 AM 64.9 °F 62.1 °F 90% 29.88 in 10.0 mi Calm Calm - N/A   Partly Cloudy
6:51 AM 64.0 °F 61.0 °F 90% 29.88 in 10.0 mi Calm Calm - N/A   Clear
7:51 AM 70.0 °F 64.0 °F 81% 29.90 in 10.0 mi Calm Calm - N/A   Mostly Cloudy
8:24 AM 71.6 °F 64.4 °F 78% 29.92 in 10.0 mi NNW 3.5 mph - N/A   Scattered Clouds
8:51 AM 73.0 °F 64.9 °F 76% 29.91 in 10.0 mi NNE 4.6 mph - N/A   Scattered Clouds
8:58 AM 73.4 °F 64.4 °F 73% 29.92 in 10.0 mi North 4.6 mph - N/A   Mostly Cloudy
9:21 AM 71.6 °F 64.4 °F 78% 29.92 in 10.0 mi NNW 4.6 mph - N/A   Partly Cloudy
9:51 AM 75.0 °F 64.0 °F 69% 29.91 in 10.0 mi NNE 5.8 mph - N/A   Clear
10:42 AM 73.4 °F 66.2 °F 78% 29.92 in 10.0 mi WNW 5.8 mph - N/A   Mostly Cloudy
10:51 AM 75.0 °F 66.0 °F 73% 29.91 in 10.0 mi NW 6.9 mph - N/A   Scattered Clouds
11:51 AM 77.0 °F 64.9 °F 66% 29.91 in 10.0 mi NW 9.2 mph - N/A   Clear
12:51 PM 77.0 °F 64.9 °F 66% 29.91 in 10.0 mi WNW 10.4 mph - N/A   Clear
1:51 PM 77.0 °F 66.0 °F 69% 29.91 in 10.0 mi West 9.2 mph - N/A   Clear
2:51 PM 78.1 °F 64.9 °F 64% 29.91 in 10.0 mi West 9.2 mph - N/A   Clear
3:51 PM 79.0 °F 62.1 °F 56% 29.89 in 10.0 mi West 9.2 mph - N/A   Clear
4:51 PM 79.0 °F 61.0 °F 54% 29.88 in 10.0 mi WNW 6.9 mph - N/A   Clear
5:51 PM 79.0 °F 61.0 °F 54% 29.86 in 10.0 mi Variable 5.8 mph - N/A   Clear
6:51 PM 78.1 °F 62.1 °F 58% 29.86 in 10.0 mi West 9.2 mph - N/A   Clear
7:51 PM 75.9 °F 63.0 °F 64% 29.87 in 10.0 mi West 4.6 mph - N/A   Clear
8:51 PM 73.9 °F 64.9 °F 73% 29.87 in 10.0 mi West 3.5 mph - N/A   Clear
9:51 PM 71.1 °F 64.0 °F 78% 29.90 in 10.0 mi Calm Calm - N/A   Clear
10:51 PM 69.8 °F 62.6 °F 78% 29.91 in 10.0 mi SSW 4.6 mph - N/A   Clear
11:51 PM 68.0 °F 63.0 °F 84% 29.89 in 10.0 mi South 4.6 mph - N/A   Clear